Content
SEND FEEDBACK

Daily
Averages
Monthly
Summary
United States of America

TYRONE, PENNSYLVANIA


Home > North America > United States > Pennsylvania
Elevation: 1080 feet     Latitude: 40 43N     Longitude: 078 11W

WEATHER
 
SELECT A DAY
Number of Records: 302,256;   Date Range: 1/1/95 - 7/22/14
 
SHARE

PRINT THIS DATA

[ ← Previous Day ]
WEATHER ALMANAC - JANUARY 31, 2013
[ Next Day → ]
[ °C ]   °F
Weather ElementAverageHighLow
Temperature32.1 °F51.6 °F (12:35 am)21.7 °F (10:15 pm)
Dewpoint24.6 °F49.5 °F (12:35 am)8.6 °F (5:53 pm)
Humidity74.5 %92 % (12:35 am)54 % (5:53 pm)
Barometer29.48 in29.76 in (7:53 pm)29.15 in (1:55 am)
Wind Speed18.4 mph35.7 mph (2:55 am)
Wind Gust50.6 mph (2:55 am)
Weather ElementAverage
Visibility7.1 mi
Wind DirectionWSW (260.2 °)

Weather ElementTotal
Precipitation0.41 in
Heating Degree Days28.4 (Base 65)
Averaged from 44 records on January 31, 2013
WEATHER CONDITIONS BREAKOUT
WIND DIRECTION BREAKOUT
WEATHER BY HOUR - JANUARY 31, 2013
[ °C ]   °F
Local TimeTemperatureDewpointHumidityBarometerVisibilityWind DirectionWind SpeedGust SpeedPrecipitationEventsConditions
12:35 AM51.6 °F49.5 °F92 %29.20 in7.0 miSW (230°)15.0 mph0.25 inRainRain
12:55 AM51.4 °F48.9 °F91 %29.18 in10.0 miSW (230°)13.8 mph17.3 mphRainLight Rain
1:15 AM50.2 °F48.0 °F92 %29.18 in10.0 miWSW (250°)9.2 mph0.02 inRainLight Rain
1:35 AM50.0 °F47.7 °F92 %29.16 in10.0 miWSW (240°)11.5 mph0.06 inRainRain
1:55 AM48.6 °F44.8 °F87 %29.15 in7.0 miWest (260°)18.4 mph29.9 mph0.01 inRainRain
2:15 AM46.8 °F43.0 °F87 %29.19 in10.0 miWSW (250°)19.6 mph27.6 mph0.02 inRainRain
2:35 AM46.0 °F41.0 °F83 %29.15 in10.0 miWSW (240°)15.0 mph26.5 mph0.02 inRainRain
2:55 AM45.1 °F40.5 °F84 %29.19 in10.0 miWest (270°)35.7 mph50.6 mph0.01 inRainRain
3:15 AM39.2 °F33.4 °F80 %29.23 in10.0 miWest (270°)28.8 mph38.0 mph0.01 inOvercast
3:35 AM38.8 °F32.0 °F76 %29.21 in10.0 miWest (260°)25.3 mph34.5 mph0.01 inOvercast
3:55 AM38.3 °F31.3 °F76 %29.24 in10.0 miWSW (250°)21.9 mph35.7 mphOvercast
4:15 AM37.4 °F31.1 °F78 %29.25 in10.0 miWest (270°)17.3 mph36.8 mphLight Drizzle
4:35 AM35.8 °F29.3 °F77 %29.25 in10.0 miWest (260°)21.9 mph36.8 mphOvercast
4:55 AM35.4 °F28.6 °F76 %29.28 in10.0 miWest (280°)21.9 mph36.8 mphSnowLight Snow
5:15 AM33.8 °F29.3 °F84 %29.29 in4.0 miWest (260°)19.6 mph29.9 mphSnowLight Snow
5:53 AM33.8 °F26.6 °F75 %29.32 in10.0 miWest (270°)20.7 mph34.5 mphOvercast
6:53 AM33.8 °F19.4 °F56 %29.37 in10.0 miWest (280°)28.8 mph43.7 mphOvercast
7:53 AM32.0 °F17.6 °F55 %29.43 in10.0 miWest (270°)27.6 mph43.7 mphMostly Cloudy
8:20 AM32.0 °F19.4 °F60 %29.44 in2.0 miWest (270°)24.2 mph29.9 mphSnowLight Snow
8:33 AM30.2 °F24.8 °F80 %29.46 in0.5 miWest (280°)17.3 mphSnowSnow
8:53 AM30.2 °F26.6 °F86 %29.47 in7.0 miWest (270°)16.1 mph24.2 mphMostly Cloudy
9:53 AM32.0 °F19.4 °F60 %29.50 in10.0 miWest (270°)23.0 mph34.5 mphMostly Cloudy
10:53 AM32.0 °F19.4 °F60 %29.53 in10.0 miWest (270°)28.8 mph40.3 mphMostly Cloudy
11:53 AM28.4 °F17.6 °F64 %29.56 in3.0 miWest (270°)24.2 mph36.8 mphSnowSnow
12:53 PM28.4 °F17.6 °F64 %29.59 in3.0 miWest (270°)28.8 mph40.3 mphSnowSnow Showers
1:53 PM28.4 °F15.8 °F59 %29.59 in4.0 miWest (270°)23.0 mph36.8 mphSnowLight Snow
2:33 PM26.6 °F19.4 °F74 %29.61 in2.0 miWSW (250°)13.8 mph25.3 mphSnowSnow
2:53 PM24.8 °F19.4 °F80 %29.61 in3.0 miWest (270°)11.5 mph27.6 mphSnowLight Snow
3:15 PM24.8 °F21.2 °F86 %29.62 in1.0 miWest (260°)16.1 mph23.0 mphSnowHeavy Snow
3:53 PM24.8 °F17.6 °F74 %29.64 in2.0 miWest (260°)25.3 mph39.1 mphSnowSnow
4:22 PM24.8 °F14.0 °F64 %29.67 in5.0 miWest (260°)13.8 mph29.9 mphSnowLight Snow
4:53 PM24.8 °F14.0 °F64 %29.69 in7.0 miWest (270°)11.5 mph28.8 mphSnowLight Snow
5:53 PM23.0 °F8.6 °F54 %29.72 in7.0 miWest (270°)17.3 mph28.8 mphSnowLight Snow
6:53 PM23.0 °F10.4 °F59 %29.74 in10.0 miWest (270°)11.5 mph28.8 mphOvercast
7:53 PM23.0 °F12.2 °F63 %29.76 in10.0 miWest (270°)11.5 mph20.7 mphOvercast
8:53 PM23.0 °F10.4 °F59 %29.74 in10.0 miWest (270°)11.5 mph23.0 mphOvercast
9:10 PM23.0 °F10.4 °F59 %29.74 in5.0 miWest (270°)11.5 mph23.0 mphSnowLight Snow
9:55 PM22.8 °F17.2 °F79 %29.75 in2.0 miWSW (240°)17.3 mph21.9 mphSnowLight Snow
10:15 PM21.7 °F18.1 °F86 %29.76 in5.0 miSW (230°)10.4 mphSnowLight Snow
10:35 PM21.9 °F17.2 °F82 %29.75 in10.0 miSW (230°)10.4 mphOvercast
10:55 PM22.6 °F18.1 °F83 %29.76 in3.0 miWSW (240°)15.0 mph19.6 mphSnowLight Snow
11:15 PM22.6 °F17.6 °F81 %29.75 in10.0 miWest (260°)11.5 mphSnowLight Snow
11:35 PM22.3 °F18.0 °F83 %29.76 in2.0 miWest (260°)17.3 mph27.6 mphSnowLight Snow
11:55 PM22.6 °F15.6 °F74 %29.76 in10.0 miWest (260°)16.1 mph23.0 mphOvercast
Hourly data recorded from KUNV, located miles away from Tyrone, Pennsylvania







STORIES FROM OUR PARTNERS